TimeMST,TemperatureF,Dew PointF,Humidity,Sea Level PressureIn,VisibilityMPH,Wind Direction,Wind SpeedMPH,Gust SpeedMPH,PrecipitationIn,Events,Conditions,WindDirDegrees,DateUTC
12:15 AM,42.8,10.4,27,30.11,10.0,West,20.7,29.9,N/A,,Clear,260,2013-01-18 07:15:00
12:35 AM,42.8,10.4,27,30.09,10.0,West,16.1,26.5,N/A,,Clear,260,2013-01-18 07:35:00
12:55 AM,44.6,10.4,25,30.09,10.0,WSW,18.4,31.1,N/A,,Clear,250,2013-01-18 07:55:00
1:15 AM,42.8,12.2,29,30.09,10.0,WSW,20.7,28.8,N/A,,Clear,240,2013-01-18 08:15:00
1:35 AM,44.6,12.2,27,30.09,10.0,WSW,20.7,38.0,N/A,,Clear,240,2013-01-18 08:35:00
1:55 AM,44.6,12.2,27,30.10,10.0,SW,19.6,32.2,N/A,,Clear,230,2013-01-18 08:55:00
2:15 AM,44.6,12.2,27,30.08,10.0,SW,18.4,28.8,N/A,,Clear,230,2013-01-18 09:15:00
2:35 AM,44.6,10.4,25,30.09,10.0,West,15.0,19.6,N/A,,Clear,270,2013-01-18 09:35:00
2:55 AM,44.6,10.4,25,30.11,10.0,WNW,10.4,17.3,N/A,,Clear,290,2013-01-18 09:55:00
3:15 AM,44.6,10.4,25,30.11,10.0,West,9.2,18.4,N/A,,Clear,260,2013-01-18 10:15:00
3:55 AM,44.6,10.4,25,30.10,10.0,West,11.5,23.0,N/A,,Clear,280,2013-01-18 10:55:00
4:15 AM,42.8,10.4,27,30.07,10.0,WSW,15.0,26.5,N/A,,Clear,240,2013-01-18 11:15:00
4:35 AM,44.6,10.4,25,30.06,10.0,WSW,19.6,27.6,N/A,,Clear,250,2013-01-18 11:35:00
4:55 AM,44.6,12.2,27,30.09,10.0,West,12.7,29.9,N/A,,Clear,270,2013-01-18 11:55:00
5:15 AM,44.6,10.4,25,30.08,10.0,West,13.8,18.4,N/A,,Clear,280,2013-01-18 12:15:00
5:35 AM,44.6,10.4,25,30.06,10.0,West,15.0,27.6,N/A,,Clear,260,2013-01-18 12:35:00
5:55 AM,44.6,10.4,25,30.05,10.0,West,13.8,24.2,N/A,,Clear,260,2013-01-18 12:55:00
6:15 AM,44.6,10.4,25,30.05,10.0,West,20.7,33.4,N/A,,Clear,260,2013-01-18 13:15:00
6:35 AM,44.6,10.4,25,30.04,10.0,WSW,24.2,31.1,N/A,,Clear,250,2013-01-18 13:35:00
6:55 AM,44.6,8.6,23,30.03,10.0,WSW,16.1,29.9,N/A,,Clear,250,2013-01-18 13:55:00
7:15 AM,44.6,8.6,23,30.03,10.0,WSW,18.4,26.5,N/A,,Clear,250,2013-01-18 14:15:00
7:35 AM,44.6,10.4,25,30.03,10.0,West,17.3,33.4,N/A,,Clear,260,2013-01-18 14:35:00
8:15 AM,44.6,10.4,25,30.01,10.0,WSW,24.2,35.7,N/A,,Clear,250,2013-01-18 15:15:00
8:35 AM,46.4,8.6,22,30.04,10.0,West,17.3,34.5,N/A,,Clear,260,2013-01-18 15:35:00
8:55 AM,46.4,10.4,23,30.03,10.0,West,23.0,35.7,N/A,,Clear,260,2013-01-18 15:55:00
9:15 AM,48.2,8.6,20,30.03,10.0,West,13.8,31.1,N/A,,Clear,260,2013-01-18 16:15:00
9:35 AM,48.2,10.4,22,30.04,10.0,WSW,20.7,33.4,N/A,,Clear,250,2013-01-18 16:35:00
9:55 AM,48.2,8.6,20,30.05,10.0,West,21.9,33.4,N/A,,Clear,260,2013-01-18 16:55:00
10:15 AM,48.2,8.6,20,30.04,10.0,WSW,20.7,39.1,N/A,,Clear,240,2013-01-18 17:15:00
10:35 AM,48.2,10.4,22,30.04,10.0,WSW,23.0,33.4,N/A,,Clear,250,2013-01-18 17:35:00
10:55 AM,48.2,10.4,22,30.04,10.0,WSW,20.7,29.9,N/A,,Clear,250,2013-01-18 17:55:00
11:15 AM,48.2,10.4,22,30.04,10.0,WSW,9.2,-,N/A,,Clear,250,2013-01-18 18:15:00
11:35 AM,48.2,12.2,24,30.04,10.0,West,8.1,-,N/A,,Clear,270,2013-01-18 18:35:00
12:15 PM,48.2,10.4,22,30.01,10.0,West,8.1,23.0,N/A,,Clear,260,2013-01-18 19:15:00
12:35 PM,46.4,12.2,25,30.00,10.0,West,16.1,23.0,N/A,,Clear,280,2013-01-18 19:35:00
12:55 PM,48.2,10.4,22,29.99,10.0,West,13.8,21.9,N/A,,Clear,280,2013-01-18 19:55:00
1:15 PM,48.2,10.4,22,29.98,10.0,WNW,13.8,29.9,N/A,,Clear,300,2013-01-18 20:15:00
1:35 PM,48.2,10.4,22,29.98,10.0,WNW,9.2,18.4,N/A,,Clear,300,2013-01-18 20:35:00
1:55 PM,48.2,12.2,24,29.98,10.0,WNW,4.6,-,N/A,,Clear,290,2013-01-18 20:55:00
2:15 PM,46.4,14.0,27,29.97,10.0,NW,8.1,-,N/A,,Clear,310,2013-01-18 21:15:00
2:35 PM,51.8,10.4,19,29.97,10.0,West,13.8,33.4,N/A,,Clear,260,2013-01-18 21:35:00
2:55 PM,48.2,10.4,22,29.97,10.0,West,18.4,27.6,N/A,,Clear,260,2013-01-18 21:55:00
3:15 PM,50.0,10.4,20,29.99,10.0,West,8.1,23.0,N/A,,Clear,270,2013-01-18 22:15:00
3:35 PM,50.0,10.4,20,30.00,10.0,West,13.8,25.3,N/A,,Clear,260,2013-01-18 22:35:00
3:55 PM,50.0,12.2,22,29.99,10.0,WSW,16.1,21.9,N/A,,Clear,250,2013-01-18 22:55:00
4:15 PM,48.2,10.4,22,29.99,10.0,West,18.4,24.2,N/A,,Clear,260,2013-01-18 23:15:00
4:35 PM,48.2,10.4,22,29.99,10.0,WSW,12.7,25.3,N/A,,Clear,250,2013-01-18 23:35:00
5:35 PM,46.4,10.4,23,30.00,10.0,WSW,12.7,23.0,N/A,,Clear,250,2013-01-19 00:35:00
5:55 PM,46.4,10.4,23,29.99,10.0,WSW,12.7,21.9,N/A,,Clear,240,2013-01-19 00:55:00
6:15 PM,46.4,10.4,23,30.00,10.0,WSW,10.4,24.2,N/A,,Clear,240,2013-01-19 01:15:00
6:35 PM,46.4,10.4,23,29.99,10.0,West,9.2,25.3,N/A,,Clear,260,2013-01-19 01:35:00
6:55 PM,46.4,10.4,23,29.98,10.0,West,6.9,19.6,N/A,,Clear,280,2013-01-19 01:55:00
7:15 PM,44.6,10.4,25,29.98,10.0,NE,11.5,16.1,N/A,,Clear,50,2013-01-19 02:15:00
7:35 PM,46.4,10.4,23,29.99,10.0,NE,11.5,16.1,N/A,,Clear,50,2013-01-19 02:35:00
7:55 PM,46.4,12.2,25,30.00,10.0,WSW,4.6,-,N/A,,Partly Cloudy,250,2013-01-19 02:55:00
8:15 PM,42.8,12.2,29,30.00,10.0,East,3.5,-,N/A,,Clear,90,2013-01-19 03:15:00
8:35 PM,39.2,12.2,33,29.99,10.0,West,8.1,-,N/A,,Clear,280,2013-01-19 03:35:00
8:55 PM,39.2,12.2,33,29.99,10.0,South,5.8,-,N/A,,Clear,190,2013-01-19 03:55:00
9:15 PM,44.6,10.4,25,29.98,10.0,West,15.0,18.4,N/A,,Clear,270,2013-01-19 04:15:00
9:35 PM,44.6,10.4,25,29.99,10.0,West,19.6,29.9,N/A,,Clear,260,2013-01-19 04:35:00
9:55 PM,44.6,8.6,23,30.04,10.0,NNE,12.7,23.0,N/A,,Clear,20,2013-01-19 04:55:00
10:15 PM,42.8,12.2,29,30.06,10.0,NW,3.5,-,N/A,,Clear,320,2013-01-19 05:15:00
10:55 PM,39.2,10.4,31,30.07,10.0,WNW,10.4,-,N/A,,Clear,290,2013-01-19 05:55:00
11:15 PM,39.2,10.4,31,30.07,10.0,WNW,9.2,-,N/A,,Clear,290,2013-01-19 06:15:00
11:35 PM,37.4,10.4,33,30.08,10.0,WNW,5.8,-,N/A,,Clear,290,2013-01-19 06:35:00
11:55 PM,37.4,10.4,33,30.08,10.0,West,8.1,-,N/A,,Clear,280,2013-01-19 06:55:00